EW7144 Weather Reports


time (UTC)temp
F
wind
direction
speed
knots
gust
knots
rain 1hr
in
rain 24hr
in
rain mn
in
humidity
%
barometer
mb
20260507142906 64 353 7.0 17.4 0.04 1.80 0.16 92 1012.6
20260507142406 64 351 7.8 17.4 0.06 1.80 0.16 92 1012.7
20260507141906 64 20 6.1 17.4 0.06 1.80 0.16 92 1012.8
20260507141406 64 2 8.7 15.6 0.07 1.80 0.16 92 1012.8
20260507140906 64 12 7.8 13.9 0.07 1.79 0.15 92 1012.9
20260507140406 64 339 4.3 13.0 0.07 1.79 0.15 92 1012.9
20260507135907 64 0 5.2 15.6 0.08 1.79 0.15 92 1013.0
20260507135408 64 27 5.2 13.9 0.09 1.79 0.15 92 1013.1
20260507134907 64 348 7.0 17.4 0.10 1.79 0.15 92 1013.1
20260507134407 64 6 5.2 21.7 0.11 1.79 0.15 92 1013.1
20260507133906 64 0 6.1 13.9 0.11 1.78 0.14 92 1013.1
20260507132907 64 353 7.0 17.4 0.09 1.76 0.12 92 1013.4
20260507132407 64 0 4.3 17.4 0.09 1.74 0.10 92 1013.3
20260507131908 64 4 6.1 12.2 0.08 1.73 0.09 92 1013.4
20260507131406 64 339 7.8 15.6 0.08 1.72 0.09 92 1013.4
20260507130906 64 2 9.6 17.4 0.08 1.72 0.08 92 1013.5
20260507125906 64 345 7.8 17.4 0.89 1.71 0.07 92 1013.5
20260507125406 64 350 6.1 22.6 0.88 1.70 0.06 92 1013.6
20260507124906 64 9 7.8 22.6 0.87 1.69 0.05 92 1013.6
20260507123906 64 357 7.8 17.4 0.86 1.67 0.03 92 1013.7
20260507123406 64 351 8.7 17.4 0.87 1.67 0.03 92 1013.7
20260507121906 64 358 7.0 14.8 0.85 1.65 0.02 92 1013.7
20260507121406 64 359 7.8 19.1 0.84 1.65 0.01 92 1013.8
20260507120906 64 356 8.7 13.9 0.83 1.64 0.00 92 1013.9
20260507120406 64 7 9.6 22.6 0.83 1.64 0.00 92 1013.8
20260507115906 64 353 9.6 18.2 0.02 0.83 0.82 92 1013.9
20260507113906 64 358 9.6 21.7 0.05 0.82 0.81 92 1014.1
20260507113406 64 356 12.2 19.1 0.06 0.81 0.80 92 1014.1
20260507112906 64 5 12.2 22.6 0.06 0.81 0.80 92 1014.2
20260507111906 64 341 8.7 19.1 0.09 0.81 0.80 92 1014.3
20260507111406 64 330 10.4 19.1 0.09 0.81 0.80 92 1014.4
20260507110406 64 348 10.4 20.0 0.13 0.81 0.80 92 1014.5
20260507105906 64 343 10.4 21.7 0.13 0.81 0.80 92 1014.4
20260507104906 64 338 12.2 22.6 0.15 0.80 0.79 92 1014.4
20260507103906 63 355 6.1 17.4 0.15 0.77 0.76 91 1014.3
20260507103406 63 2 5.2 14.8 0.14 0.75 0.74 91 1014.4
20260507102906 63 6 6.1 13.9 0.15 0.75 0.74 91 1014.5
20260507102406 63 355 7.8 14.8 0.15 0.74 0.73 91 1014.4
20260507101905 63 345 8.7 21.7 0.13 0.72 0.71 91 1014.4
20260507101405 64 2 8.7 20.9 0.13 0.72 0.71 91 1014.5
20260507100906 64 10 8.7 19.1 0.13 0.70 0.69 91 1014.5
20260507095906 63 341 4.3 11.3 0.11 0.68 0.67 91 1014.4
20260507094906 63 350 6.1 18.2 0.10 0.65 0.64 91 1014.5
20260507094406 63 14 8.7 21.7 0.11 0.64 0.63 91 1014.4
20260507092907 63 9 5.2 14.8 0.09 0.60 0.59 91 1014.4
20260507091907 63 357 10.4 20.9 0.09 0.59 0.58 91 1014.5
20260507091406 63 9 7.0 21.7 0.09 0.58 0.57 91 1014.5
20260507090906 63 8 7.8 18.2 0.09 0.57 0.57 91 1014.5
20260507090406 63 11 6.1 15.6 0.09 0.57 0.56 91 1014.5
20260507085906 63 26 7.0 20.9 0.10 0.57 0.56 91 1014.5
20260507085406 63 12 8.7 19.1 0.09 0.56 0.55 91 1014.6
20260507084906 63 9 12.2 26.9 0.09 0.54 0.54 91 1014.8
20260507084406 63 17 7.8 22.6 0.08 0.53 0.52 91 1014.7
20260507083906 63 357 11.3 22.6 0.07 0.51 0.50 91 1014.8
20260507083406 63 349 7.8 25.2 0.08 0.51 0.50 91 1014.7
20260507082406 63 7 10.4 20.0 0.07 0.50 0.50 91 1014.8
20260507081906 63 351 7.8 14.8 0.06 0.50 0.49 91 1014.8
20260507081406 63 4 12.2 22.6 0.07 0.50 0.49 91 1014.9
20260507080905 63 3 11.3 21.7 0.06 0.49 0.48 91 1014.9
20260507080406 63 4 12.2 22.6 0.06 0.48 0.47 91 1014.8
20260507075906 63 17 7.0 18.2 0.05 0.46 0.46 91 1014.8
20260507075406 63 8 9.6 18.2 0.05 0.46 0.46 91 1015.0
20260507074906 63 11 13.9 24.3 0.03 0.45 0.44 91 1015.0
20260507073906 63 338 10.4 21.7 0.02 0.44 0.43 91 1014.9
20260507073406 63 14 8.7 20.0 0.03 0.43 0.43 91 1015.0
20260507072906 63 17 12.2 24.3 0.04 0.43 0.43 91 1015.0
20260507072406 63 14 12.2 20.9 0.05 0.43 0.43 91 1015.1
20260507071906 63 11 12.2 25.2 0.05 0.43 0.43 91 1014.9
20260507071406 63 6 12.2 27.8 0.06 0.43 0.42 91 1014.7
20260507070906 63 8 12.2 31.3 0.06 0.43 0.42 91 1014.8
20260507070406 63 7 7.8 17.4 0.07 0.42 0.41 91 1014.8
20260507065906 63 7 8.7 18.2 0.09 0.42 0.41 91 1014.8
20260507065406 63 3 7.8 22.6 0.11 0.42 0.41 91 1014.9
20260507064906 63 10 11.3 22.6 0.13 0.42 0.41 91 1014.9
20260507064406 63 10 6.1 22.6 0.15 0.42 0.41 91 1015.0
20260507063905 63 7 13.0 28.7 0.16 0.42 0.41 91 1015.1
20260507063406 63 12 12.2 22.6 0.16 0.40 0.39 91 1015.2
20260507062906 63 19 13.0 30.4 0.16 0.39 0.39 91 1015.3
20260507062405 63 5 11.3 24.3 0.16 0.39 0.38 91 1015.3
20260507061406 63 14 10.4 19.1 0.18 0.37 0.36 91 1015.2
20260507060406 63 20 7.0 20.0 0.16 0.35 0.34 91 1015.3
20260507055905 63 355 4.3 17.4 0.14 0.33 0.32 90 1015.4
20260507055408 63 1 4.3 18.2 0.13 0.31 0.30 90 1015.4
20260507054906 63 4 8.7 19.1 0.11 0.29 0.28 90 1015.5
20260507054406 63 1 7.8 17.4 0.09 0.27 0.26 90 1015.4
20260507053906 63 7 14.8 26.1 0.08 0.26 0.25 90 1015.6
20260507053406 63 359 7.8 19.1 0.06 0.24 0.24 90 1015.6
20260507052906 63 350 8.7 18.2 0.06 0.24 0.23 90 1015.7
20260507052406 63 354 12.2 20.9 0.05 0.23 0.22 90 1015.8
20260507051905 63 341 10.4 21.7 0.02 0.20 0.19 90 1015.8
20260507051406 63 6 5.2 14.8 0.02 0.19 0.18 90 1015.7
20260507050906 63 350 10.4 20.0 0.02 0.19 0.18 90 1015.7
20260507050406 63 1 9.6 15.6 0.02 0.19 0.18 90 1015.7
20260507045905 63 357 6.1 18.2 0.02 0.19 0.18 90 1015.6
20260507045406 63 13 7.8 13.9 0.01 0.18 0.17 90 1015.5
20260507044406 63 354 7.8 17.4 0.01 0.18 0.17 90 1015.5
20260507043906 63 359 9.6 20.9 0.01 0.18 0.17 90 1015.6
20260507043405 63 18 8.7 25.2 0.01 0.18 0.17 90 1015.6
20260507042906 63 20 7.0 14.8 0.01 0.18 0.17 89 1015.7
20260507042406 63 14 9.6 17.4 0.01 0.18 0.17 89 1015.8
20260507041906 63 6 13.9 22.6 0.00 0.17 0.17 89 1015.7
20260507041406 63 8 13.0 20.0 0.00 0.17 0.17 90 1015.8
20260507040905 63 357 10.4 19.1 0.00 0.17 0.17 89 1016.0
20260507040405 63 20 7.8 18.2 0.00 0.17 0.17 90 1016.1
20260507034906 63 359 8.7 17.4 0.00 0.17 0.17 90 1016.0
20260507034406 63 0 7.8 14.8 0.00 0.17 0.17 90 1016.1
20260507033906 63 7 7.8 14.8 0.00 0.17 0.17 90 1016.1
20260507033405 63 20 7.8 19.1 0.00 0.17 0.17 90 1016.2
20260507032406 63 358 12.2 22.6 0.00 0.17 0.17 90 1016.3
20260507031906 63 8 9.6 18.2 0.00 0.17 0.17 90 1016.3
20260507031405 63 13 8.7 14.8 0.00 0.17 0.17 90 1016.3
20260507030906 63 9 11.3 24.3 0.00 0.17 0.17 90 1016.4
20260507030406 63 0 5.2 18.2 0.00 0.17 0.17 90 1016.5
20260507025906 63 12 13.9 25.2 0.00 0.17 0.17 90 1016.6
20260507025405 63 14 8.7 26.9 0.00 0.17 0.17 90 1016.6
20260507024906 63 11 9.6 25.2 0.00 0.17 0.17 90 1016.7
20260507024405 63 8 10.4 20.9 0.00 0.17 0.17 90 1016.7
20260507023406 63 355 8.7 17.4 0.00 0.17 0.17 90 1017.0
20260507021906 63 16 9.6 19.1 0.00 0.17 0.17 90 1017.1
20260507021405 63 7 12.2 20.9 0.01 0.17 0.17 90 1017.4
20260507020906 63 8 7.8 20.9 0.02 0.17 0.17 90 1017.3
20260507020408 63 2 11.3 22.6 0.02 0.17 0.17 91 1017.3
20260507015406 63 9 9.6 19.1 0.02 0.17 0.17 91 1017.4
20260507014406 63 3 11.3 19.1 0.02 0.17 0.17 91 1017.7
20260507013906 63 358 12.2 26.1 0.02 0.17 0.17 91 1017.8
20260507013405 63 10 10.4 19.1 0.02 0.17 0.17 90 1017.8
20260507012905 63 10 12.2 21.7 0.02 0.17 0.17 90 1017.9
20260507011906 63 1 8.7 20.9 0.02 0.17 0.17 90 1018.0
20260507011405 63 3 6.1 17.4 0.02 0.17 0.16 91 1018.2
20260507010905 63 355 8.7 22.6 0.01 0.16 0.15 91 1018.3
20260507010405 63 0 7.0 17.4 0.01 0.16 0.15 91 1018.4
20260507005906 63 4 10.4 19.1 0.01 0.16 0.15 91 1018.6
20260507005406 63 359 6.1 15.6 0.01 0.15 0.14 91 1018.6
20260507004905 63 14 9.6 22.6 0.02 0.15 0.14 90 1018.7
20260507003906 63 24 7.8 15.6 0.04 0.15 0.14 91 1018.9
20260507003407 63 7 10.4 19.1 0.04 0.15 0.14 91 1018.9
20260507002906 63 13 13.9 22.6 0.04 0.15 0.14 91 1019.0
20260507002407 63 2 7.0 12.2 0.04 0.15 0.14 90 1019.1
20260507001907 63 16 12.2 20.0 0.04 0.15 0.14 90 1019.2
20260507001407 63 356 11.3 15.6 0.04 0.15 0.14 90 1019.2
20260507000906 63 16 9.6 17.4 0.04 0.15 0.14 90 1019.4
20260507000406 62 7 7.0 14.8 0.04 0.15 0.14 90 1019.4
20260506235906 62 8 10.4 22.6 0.04 0.15 0.14 90 1019.4
20260506235408 62 8 6.1 15.6 0.03 0.14 0.13 90 1019.6
20260506234906 63 344 8.7 17.4 0.02 0.13 0.13 90 1019.6
20260506234407 63 6 7.0 17.4 0.02 0.13 0.12 90 1019.7
20260506233906 63 6 10.4 15.6 0.00 0.11 0.10 90 1019.8
20260506232407 63 7 4.3 18.2 0.00 0.11 0.10 90 1019.8
20260506231906 63 14 7.0 13.0 0.00 0.11 0.10 89 1019.8
20260506231408 63 22 8.7 18.2 0.00 0.11 0.10 89 1020.1
20260506230906 63 10 7.8 13.9 0.00 0.11 0.10 89 1020.0
20260506230406 63 23 7.0 12.2 0.00 0.11 0.10 89 1020.0
20260506225906 63 6 4.3 13.0 0.00 0.11 0.10 89 1020.1
20260506224906 63 5 5.2 11.3 0.00 0.11 0.10 89 1020.1
20260506224406 63 6 7.8 12.2 0.00 0.11 0.10 89 1020.2
20260506223907 63 10 7.8 13.9 0.00 0.11 0.10 89 1020.2
20260506223407 63 3 9.6 14.8 0.00 0.11 0.10 89 1020.3
20260506222907 63 17 6.1 12.2 0.00 0.11 0.10 89 1020.3
20260506222408 63 6 7.8 19.1 0.00 0.11 0.10 89 1020.4
20260506220406 63 4 8.7 15.6 0.00 0.12 0.10 89 1020.5
20260506215906 63 359 7.0 13.9 0.00 0.12 0.10 89 1020.6
20260506215406 63 356 6.1 19.1 0.00 0.12 0.10 90 1020.6
20260506214906 63 6 7.8 13.0 0.00 0.12 0.10 90 1020.7
20260506214406 63 7 5.2 11.3 0.00 0.12 0.10 90 1020.8
20260506213906 63 0 5.2 12.2 0.00 0.12 0.10 90 1020.9
20260506212906 63 356 6.1 12.2 0.00 0.12 0.10 90 1021.0
20260506212406 63 11 6.1 12.2 0.00 0.12 0.10 90 1021.0
20260506211906 63 0 10.4 15.6 0.00 0.12 0.10 90 1021.1
20260506211407 63 12 7.8 17.4 0.00 0.12 0.10 90 1021.0
20260506210908 63 355 10.4 14.8 0.00 0.12 0.10 90 1021.1
20260506210407 63 7 7.8 15.6 0.00 0.12 0.10 90 1021.1
20260506205905 63 6 6.1 10.4 0.00 0.12 0.10 90 1021.1
20260506205407 63 16 5.2 12.2 0.00 0.12 0.10 90 1021.1
20260506204906 63 1 5.2 10.4 0.00 0.12 0.10 90 1021.2
20260506204406 63 16 6.1 13.9 0.00 0.12 0.10 90 1021.2
20260506203906 63 358 6.1 14.8 0.00 0.12 0.10 90 1021.3
20260506203406 63 8 4.3 13.9 0.00 0.12 0.10 90 1021.3
20260506202906 63 21 8.7 14.8 0.00 0.12 0.10 90 1021.2
20260506201906 63 14 5.2 10.4 0.00 0.12 0.10 90 1021.3
20260506201406 63 95 5.2 14.8 0.00 0.12 0.10 90 1021.3
20260506200906 63 13 7.0 13.0 0.00 0.12 0.10 90 1021.3
20260506194906 63 10 4.3 13.9 0.00 0.12 0.10 91 1021.3
20260506194406 63 0 7.0 14.8 0.00 0.12 0.10 91 1021.2
20260506193906 63 358 7.0 12.2 0.00 0.12 0.10 90 1021.3
20260506192906 62 13 8.7 17.4 0.00 0.12 0.10 90 1021.2
20260506191906 62 6 11.3 20.0 0.00 0.12 0.10 90 1021.2
20260506191406 62 2 10.4 15.6 0.00 0.12 0.10 91 1021.1
20260506190906 62 3 7.0 17.4 0.00 0.12 0.10 91 1021.1
20260506190405 62 6 7.8 15.6 0.00 0.12 0.10 90 1021.2
20260506185906 62 10 10.4 17.4 0.00 0.12 0.10 90 1021.1
20260506185406 62 9 6.1 20.0 0.00 0.12 0.10 90 1021.1
20260506184906 62 20 10.4 17.4 0.00 0.12 0.10 90 1021.1
20260506183405 62 9 7.8 12.2 0.00 0.12 0.10 90 1021.2
20260506182905 62 9 7.0 13.9 0.00 0.12 0.10 90 1021.3
20260506182406 61 8 7.8 13.0 0.00 0.12 0.10 90 1021.3
20260506181905 61 11 5.2 13.0 0.00 0.12 0.10 90 1021.4
20260506180905 61 13 4.3 10.4 0.00 0.12 0.10 91 1021.4
20260506180405 62 351 4.3 8.7 0.00 0.12 0.10 91 1021.4
20260506174905 62 13 7.8 13.9 0.00 0.12 0.10 91 1021.5
20260506173406 62 357 2.6 14.8 0.00 0.12 0.10 91 1021.4
20260506172906 62 8 5.2 11.3 0.00 0.12 0.10 91 1021.4
20260506172406 62 13 8.7 13.9 0.00 0.12 0.10 91 1021.4
20260506171905 62 13 7.8 13.0 0.00 0.12 0.10 91 1021.5
20260506171406 62 3 8.7 15.6 0.00 0.12 0.10 91 1021.6
20260506170906 62 5 10.4 19.1 0.00 0.12 0.10 91 1021.7
20260506170406 62 5 4.3 12.2 0.00 0.12 0.10 91 1021.6
20260506165906 62 4 8.7 13.0 0.00 0.12 0.10 91 1021.6
20260506165406 62 12 7.8 13.0 0.00 0.12 0.10 91 1021.7
20260506164906 62 14 6.1 13.0 0.01 0.12 0.10 91 1021.7
20260506163905 62 0 7.8 17.4 0.02 0.12 0.10 91 1021.8
20260506163406 62 12 9.6 13.0 0.03 0.12 0.10 91 1021.9
20260506162905 62 3 6.1 14.8 0.04 0.12 0.10 91 1021.9
20260506162406 62 11 5.2 14.8 0.05 0.12 0.10 91 1022.0
20260506161906 62 17 5.2 12.2 0.06 0.12 0.10 90 1022.0
20260506161406 62 1 8.7 15.6 0.09 0.12 0.10 90 1022.1
20260506160906 61 356 3.5 13.9 0.09 0.12 0.10 91 1022.2
20260506160405 61 2 6.1 14.8 0.09 0.12 0.10 90 1022.2
20260506155906 61 17 5.2 13.0 0.10 0.12 0.10 90 1022.3
20260506155405 61 16 7.0 11.3 0.10 0.12 0.10 90 1022.3
20260506154405 62 24 7.8 13.9 0.09 0.11 0.09 90 1022.5
20260506153905 62 355 8.7 17.4 0.08 0.09 0.08 90 1022.5
20260506153406 62 350 3.5 10.4 0.07 0.09 0.07 90 1022.6
20260506152906 62 358 1.7 10.4 0.06 0.08 0.06 90 1022.6
20260506152405 62 6 6.1 14.8 0.06 0.07 0.06 90 1022.7
20260506151905 62 13 6.1 11.3 0.04 0.06 0.04 90 1022.8
20260506150905 62 12 5.2 10.4 0.01 0.02 0.01 90 1022.8
20260506150405 62 13 2.6 8.7 0.01 0.02 0.01 90 1022.9
20260506145906 62 18 4.3 11.3 0.00 0.02 0.00 90 1023.1
20260506145406 62 25 6.1 10.4 0.00 0.02 0.00 90 1023.2
20260506144906 62 23 1.7 7.8 0.00 0.02 0.00 89 1023.3
20260506144405 62 4 2.6 7.0 0.00 0.02 0.00 89 1023.4
20260506143905 62 6 6.1 8.7 0.00 0.02 0.00 89 1023.5
20260506143406 62 0 1.7 4.3 0.00 0.02 0.00 89 1023.6